Data for 02/08/2018

Time Sea-Level Adjusted Pressure Absolute Pressure Temperature Relative Humidity Dew Point   
(mb) (inHg) (mb) (inHg) (C) (F) (%) (C) (F)
00:05 1020 30.12 849 25.07 7.3 45.1 50 -2.5 27.4
00:10 1019 30.09 849 25.07 7.2 45 51 -2.3 27.8
00:15 1019 30.09 849 25.07 7.1 44.9 50 -2.5 27.4
00:20 1019 30.09 849 25.07 7.3 45.1 50 -2.4 27.6
00:25 1019 30.09 849 25.07 7.3 45.1 51 -2.1 28.2
00:30 1019 30.09 848 25.04 7.1 44.7 51 -2.4 27.7
00:35 1019 30.09 848 25.04 7.2 44.9 51 -2.3 27.8
00:40 1019 30.09 848 25.04 7.2 45 51 -2.2 28.1
00:45 1019 30.09 848 25.04 7.2 44.9 51 -2.3 27.9
00:50 1019 30.09 848 25.04 7.5 45.4 50 -2.3 27.8
00:55 1019 30.09 849 25.07 7.5 45.6 50 -2.3 27.9
01:00 1019 30.09 848 25.04 7.5 45.5 49 -2.4 27.6
01:05 1019 30.09 848 25.04 7.5 45.5 51 -1.9 28.5
01:10 1019 30.09 848 25.04 7.1 44.8 51 -2.2 28
01:15 1019 30.09 848 25.04 7.2 45 51 -2.3 27.8
01:20 1019 30.09 848 25.04 7.2 44.9 52 -2.1 28.2
01:25 1019 30.09 848 25.04 7.1 44.7 51 -2.3 27.8
01:30 1019 30.09 848 25.04 7.3 45.2 51 -2.2 28
01:35 1019 30.09 848 25.04 7.3 45.1 52 -2.1 28.3
01:40 1019 30.09 848 25.04 7 44.5 52 -2.1 28.2
01:45 1019 30.09 848 25.04 7 44.6 52 -2.3 27.8
01:50 1019 30.09 848 25.04 6.9 44.5 52 -2.3 27.8
01:55 1019 30.09 848 25.04 7 44.6 50 -2.6 27.3
02:00 1019 30.09 848 25.04 7.4 45.3 50 -2.4 27.6
02:05 1019 30.09 848 25.04 7.2 45 50 -2.5 27.6
02:10 1019 30.09 848 25.04 7.3 45.1 50 -2.5 27.5
02:15 1019 30.09 848 25.04 7.4 45.2 49 -2.8 27
02:20 1019 30.09 848 25.04 7.4 45.4 49 -2.5 27.6
02:25 1019 30.09 848 25.04 7.3 45.1 49 -2.6 27.4
02:30 1019 30.09 848 25.04 7.2 44.9 50 -2.5 27.5
02:35 1019 30.09 848 25.04 7.1 44.7 50 -2.6 27.3
02:40 1019 30.09 848 25.04 7.1 44.8 50 -2.6 27.4
02:45 1019 30.09 848 25.04 7.1 44.7 50 -2.5 27.5
02:50 1019 30.09 848 25.04 7.2 44.9 49 -3 26.7
02:55 1019 30.09 848 25.04 7.4 45.3 49 -2.7 27.2
03:00 1019 30.09 848 25.04 7.3 45.1 49 -2.7 27.1
03:05 1019 30.09 848 25.04 7.1 44.7 51 -2.4 27.7
03:10 1019 30.09 848 25.04 6.8 44.2 52 -2.4 27.6
03:15 1019 30.09 848 25.04 6.7 44 52 -2.6 27.3
03:20 1019 30.09 848 25.04 6.6 43.8 52 -2.5 27.5
03:25 1018 30.06 848 25.04 6.5 43.8 52 -2.5 27.5
03:30 1018 30.06 847 25.01 6.5 43.8 52 -2.7 27.1
03:35 1018 30.06 847 25.01 6.6 43.9 52 -2.6 27.3
03:40 1018 30.06 847 25.01 6.6 44 51 -2.7 27.1
03:45 1018 30.06 847 25.01 6.7 44.1 51 -2.8 27
03:50 1018 30.06 847 25.01 6.8 44.2 51 -2.6 27.3
03:55 1018 30.06 847 25.01 6.8 44.2 49 -3 26.5
04:00 1018 30.06 847 25.01 7.1 44.8 49 -2.9 26.8
04:05 1018 30.06 847 25.01 7.1 44.7 49 -2.8 27
04:10 1018 30.06 847 25.01 6.9 44.4 52 -2.4 27.7
04:15 1018 30.06 847 25.01 6.3 43.4 55 -2.1 28.2
04:20 1018 30.06 847 25.01 5.8 42.5 55 -2.4 27.7
04:25 1018 30.06 847 25.01 5.8 42.4 56 -2.4 27.7
04:30 1018 30.06 847 25.01 5.8 42.4 56 -2.4 27.7
04:35 1018 30.06 847 25.01 5.7 42.3 56 -2.3 27.8
04:40 1018 30.06 847 25.01 5.8 42.5 55 -2.5 27.5
04:45 1018 30.06 847 25.01 6.1 43 53 -2.9 26.8
04:50 1018 30.06 847 25.01 6.4 43.6 51 -3 26.7
04:55 1017 30.03 847 25.01 6.7 44 51 -2.7 27.2
05:00 1017 30.03 847 25.01 6.6 43.9 51 -2.8 26.9
05:05 1017 30.03 847 25.01 6.6 43.9 51 -2.7 27.2
05:10 1017 30.03 846 24.98 6.7 44.1 49 -3.2 26.3
05:15 1017 30.03 846 24.98 7.1 44.8 49 -3 26.7
05:20 1017 30.03 846 24.98 7.1 44.7 48 -3.1 26.3
05:25 1017 30.03 846 24.98 7.2 44.9 47 -3.3 26.1
05:30 1017 30.03 846 24.98 7.2 45 48 -3.1 26.4
05:35 1017 30.03 846 24.98 7.1 44.7 48 -3.1 26.5
05:40 1017 30.03 846 24.98 7 44.6 47 -3.5 25.7
05:45 1017 30.03 846 24.98 7.3 45.2 47 -3.2 26.3
05:50 1017 30.03 846 24.98 7.3 45.1 47 -3.4 25.9
05:55 1017 30.03 846 24.98 7.4 45.4 45 -3.6 25.6
06:00 1017 30.03 846 24.98 7.6 45.8 45 -3.6 25.4
06:05 1017 30.03 846 24.98 7.7 45.8 46 -3.1 26.5
06:10 1017 30.03 846 24.98 7.4 45.3 47 -3.2 26.2
06:15 1017 30.03 846 24.98 7.3 45.1 48 -3.1 26.4
06:20 1016 30 846 24.98 7.1 44.8 49 -3 26.6
06:25 1016 30 846 24.98 7 44.6 49 -3 26.7
06:30 1016 30 846 24.98 6.8 44.3 50 -2.9 26.8
06:35 1016 30 846 24.98 6.6 43.9 51 -2.8 26.9
06:40 1016 30 845 24.95 6.5 43.7 51 -2.9 26.7
06:45 1016 30 845 24.95 6.5 43.7 51 -2.9 26.7
06:50 1016 30 845 24.95 6.5 43.7 51 -2.9 26.7
06:55 1016 30 845 24.95 6.5 43.7 51 -3 26.6
07:00 1016 30 845 24.95 6.6 43.8 51 -2.9 26.8
07:05 1016 30 845 24.95 6.6 43.8 51 -2.8 27
07:10 1016 30 845 24.95 6.6 44 51 -2.8 26.9
07:15 1016 30 845 24.95 6.6 43.9 51 -2.7 27.2
07:20 1016 30 845 24.95 6.6 43.8 51 -2.7 27.1
07:25 1016 30 845 24.95 6.5 43.8 51 -2.7 27.1
07:30 1016 30 845 24.95 6.5 43.7 52 -2.7 27.1
07:35 1016 30 845 24.95 6.5 43.7 51 -2.8 27
07:40 1016 30 845 24.95 6.6 43.8 51 -2.8 27
07:45 1016 30 845 24.95 6.5 43.8 52 -2.7 27.1
07:50 1016 30 845 24.95 6.5 43.7 51 -2.8 27
07:55 1016 30 845 24.95 6.5 43.8 51 -2.7 27.1
08:00 1016 30 845 24.95 6.6 43.8 51 -2.8 26.9
08:05 1016 30 845 24.95 6.6 43.9 52 -2.7 27.2
08:10 1016 30 845 24.95 6.5 43.8 52 -2.6 27.3
08:15 1016 30 845 24.95 6.4 43.5 53 -2.5 27.5
08:20 1016 30 845 24.95 6.4 43.4 53 -2.5 27.5
08:25 1016 30 845 24.95 6.3 43.4 51 -3.1 26.4
08:30 1016 30 845 24.95 7.2 45 44 -4.3 24.2
08:35 1016 30 845 24.95 8.5 47.4 41 -4 24.7
08:40 1015 29.97 845 24.95 8.6 47.4 41 -4 24.8
08:45 1015 29.97 845 24.95 8.5 47.2 40 -4.3 24.3
08:50 1015 29.97 845 24.95 8.5 47.3 40 -4.2 24.5
08:55 1015 29.97 844 24.92 8.3 46.9 42 -3.9 24.9
09:00 1015 29.97 844 24.92 7.9 46.2 43 -4 24.7
09:05 1015 29.97 844 24.92 7.9 46.1 42 -4.4 24.2
09:10 1015 29.97 844 24.92 7.9 46.2 42 -4.3 24.2
09:15 1015 29.97 844 24.92 8 46.4 41 -4.5 23.9
09:20 1015 29.97 844 24.92 8.2 46.7 41 -4.2 24.4
09:25 1015 29.97 844 24.92 8 46.4 42 -4.2 24.4
09:30 1015 29.97 845 24.95 8 46.4 43 -3.8 25.1
09:35 1015 29.97 844 24.92 7.9 46.3 43 -3.9 24.9
09:40 1015 29.97 844 24.92 8 46.3 42 -4.1 24.7
09:45 1015 29.97 844 24.92 8 46.4 42 -4.1 24.7
09:50 1015 29.97 844 24.92 8.1 46.5 42 -3.9 24.9
09:55 1015 29.97 845 24.95 8 46.5 42 -4 24.8
10:00 1015 29.97 845 24.95 8.2 46.7 42 -4 24.9
10:05 1015 29.97 845 24.95 8.1 46.5 42 -3.9 24.9
10:10 1015 29.97 845 24.95 8 46.5 43 -3.9 25
10:15 1015 29.97 845 24.95 8.1 46.6 42 -3.9 25
10:20 1015 29.97 845 24.95 8.2 46.7 43 -3.7 25.4
10:25 1015 29.97 845 24.95 8.1 46.6 43 -3.7 25.4
10:30 1015 29.97 844 24.92 8.2 46.8 43 -3.7 25.3
10:35 1015 29.97 844 24.92 8.3 47 42 -3.8 25.1
10:40 1015 29.97 844 24.92 8.5 47.3 42 -3.5 25.6
10:45 1015 29.97 844 24.92 8.3 46.9 43 -3.5 25.7
10:50 1015 29.97 844 24.92 8.2 46.8 42 -3.8 25.2
10:55 1015 29.97 844 24.92 8.3 47 42 -3.7 25.3
11:00 1015 29.97 844 24.92 8.3 47 43 -3.5 25.7
11:05 1015 29.97 844 24.92 8.2 46.8 43 -3.7 25.4
11:10 1015 29.97 844 24.92 8.3 47 42 -3.9 25
11:15 1015 29.97 844 24.92 8.5 47.3 42 -3.8 25.1
11:20 1015 29.97 844 24.92 8.5 47.2 42 -3.6 25.5
11:25 1015 29.97 844 24.92 8.2 46.8 43 -3.5 25.6
11:30 1015 29.97 844 24.92 8.2 46.8 43 -3.6 25.6
11:35 1015 29.97 844 24.92 8.3 47 43 -3.5 25.7
11:40 1015 29.97 844 24.92 8.2 46.7 44 -3.3 26
11:45 1015 29.97 844 24.92 8 46.3 45 -3.2 26.2
11:50 1015 29.97 844 24.92 8.1 46.5 44 -3.5 25.8
11:55 1015 29.97 844 24.92 8.2 46.7 45 -3.2 26.3
12:00 1015 29.97 844 24.92 8.2 46.7 44 -3.3 26
12:05 1015 29.97 844 24.92 8.2 46.8 44 -3.3 26.1
12:10 1015 29.97 844 24.92 8.1 46.7 45 -3.1 26.4
12:15 1015 29.97 844 24.92 8 46.4 46 -3 26.7
12:20 1015 29.97 844 24.92 8 46.4 45 -3.1 26.4
12:25 1015 29.97 844 24.92 8 46.4 45 -3.1 26.5
12:30 1015 29.97 844 24.92 8 46.5 45 -3 26.6
12:35 1015 29.97 844 24.92 8 46.4 46 -2.9 26.7
12:40 1015 29.97 844 24.92 7.9 46.2 46 -2.9 26.8
12:45 1015 29.97 844 24.92 7.9 46.3 46 -2.9 26.8
12:50 1015 29.97 844 24.92 7.9 46.2 46 -2.9 26.8
12:55 1015 29.97 844 24.92 7.9 46.1 47 -2.8 26.9
13:00 1015 29.97 844 24.92 7.8 46.1 47 -2.7 27.2
13:05 1015 29.97 844 24.92 7.8 46 48 -2.6 27.2
13:10 1015 29.97 844 24.92 7.7 45.9 48 -2.5 27.4
13:15 1015 29.97 844 24.92 7.7 45.8 49 -2.5 27.6
13:20 1015 29.97 844 24.92 7.6 45.7 49 -2.4 27.7
13:25 1015 29.97 844 24.92 7.6 45.7 48 -2.7 27.2
13:30 1015 29.97 844 24.92 7.7 45.8 48 -2.6 27.4
13:35 1015 29.97 844 24.92 7.7 45.9 47 -3 26.6
13:40 1015 29.97 844 24.92 7.7 45.9 46 -3.1 26.5
13:45 1015 29.97 844 24.92 7.7 45.8 46 -3.1 26.4
13:50 1014 29.94 844 24.92 7.6 45.6 47 -3.1 26.3
13:55 1014 29.94 844 24.92 7.5 45.6 47 -3.1 26.4
14:00 1014 29.94 844 24.92 7.6 45.6 47 -3 26.5
14:05 1014 29.94 844 24.92 7.6 45.7 46 -3.2 26.3
14:10 1014 29.94 844 24.92 7.7 45.9 46 -3.2 26.3
14:15 1014 29.94 844 24.92 7.8 46.1 44 -3.7 25.4
14:20 1014 29.94 844 24.92 8 46.4 43 -3.7 25.3
14:25 1014 29.94 844 24.92 7.9 46.3 44 -3.6 25.5
14:30 1015 29.97 844 24.92 7.9 46.1 43 -3.8 25.1
14:35 1015 29.97 844 24.92 7.9 46.3 43 -3.8 25.2
14:40 1015 29.97 844 24.92 8 46.5 45 -3.3 26.1
14:45 1015 29.97 844 24.92 7.9 46.1 48 -2.5 27.5
14:50 1015 29.97 844 24.92 7.5 45.5 48 -2.8 27
14:55 1015 29.97 844 24.92 7.4 45.3 49 -2.7 27.2
15:00 1015 29.97 844 24.92 7.2 45 51 -2.3 27.9
15:05 1015 29.97 844 24.92 7 44.6 52 -2.2 28.1
15:10 1015 29.97 844 24.92 6.9 44.4 53 -2.1 28.2
15:15 1015 29.97 844 24.92 6.8 44.2 53 -2.1 28.3
15:20 1015 29.97 844 24.92 6.5 43.7 54 -2.1 28.3
15:25 1015 29.97 844 24.92 6.4 43.5 55 -2.1 28.3
15:30 1015 29.97 844 24.92 6 42.8 57 -1.9 28.6
15:35 1015 29.97 844 24.92 5.4 41.6 61 -1.6 29.2
15:40 1015 29.97 844 24.92 4.2 39.6 68 -1.2 29.9
15:45 1015 29.97 844 24.92 3.1 37.5 70 -2 28.5
15:50 1015 29.97 844 24.92 2.8 37 69 -2.3 27.9
15:55 1015 29.97 844 24.92 2.4 36.4 70 -2.5 27.5
16:00 1015 29.97 844 24.92 2.2 35.9 68 -3.1 26.4
16:05 1015 29.97 844 24.92 2 35.6 67 -3.5 25.8
16:10 1015 29.97 844 24.92 1.8 35.3 67 -3.6 25.6
16:15 1015 29.97 845 24.95 1.4 34.5 67 -4.1 24.6
16:20 1016 30 845 24.95 1 33.8 67 -4.5 23.9
16:25 1016 30 845 24.95 0.8 33.4 67 -4.7 23.5
16:30 1016 30 845 24.95 0.3 32.6 68 -5 23.1
16:35 1016 30 845 24.95 -0.2 31.7 69 -5.3 22.5
16:40 1016 30 845 24.95 -0.3 31.4 69 -5.3 22.4
16:45 1016 30 846 24.98 -0.5 31.1 69 -5.4 22.3
16:50 1016 30 846 24.98 -0.6 30.9 69 -5.5 22
16:55 1016 30 846 24.98 -0.8 30.5 71 -5.5 22.1
17:00 1017 30.03 846 24.98 -1.1 30 72 -5.6 22
17:05 1017 30.03 846 24.98 -1.4 29.4 70 -6.1 20.9
17:10 1017 30.03 846 24.98 -2.3 27.8 70 -7 19.4
17:15 1017 30.03 847 25.01 -3.6 25.6 72 -7.9 17.7
17:20 1017 30.03 847 25.01 -4.7 23.5 72 -9.1 15.6
17:25 1017 30.03 847 25.01 -5.8 21.6 74 -9.7 14.6
17:30 1018 30.06 847 25.01 -6.3 20.6 74 -10.3 13.5
17:35 1018 30.06 847 25.01 -6.8 19.7 74 -10.7 12.7
17:40 1018 30.06 847 25.01 -7.3 18.8 74 -11.2 11.9
17:45 1018 30.06 847 25.01 -7.8 18 74 -11.7 11
17:50 1018 30.06 847 25.01 -8.3 17.1 73 -12.3 9.8
17:55 1018 30.06 847 25.01 -8.8 16.1 73 -12.8 8.9
18:00 1018 30.06 847 25.01 -9.2 15.5 74 -12.9 8.7
18:05 1018 30.06 847 25.01 -9.4 15.1 73 -13.3 8.1
18:10 1018 30.06 847 25.01 -9.6 14.7 75 -13.4 8
18:15 1018 30.06 847 25.01 -9.8 14.4 74 -13.6 7.5
18:20 1018 30.06 848 25.04 -10.1 13.9 73 -14.1 6.6
18:25 1018 30.06 847 25.01 -10.5 13.1 74 -14.4 6.2
18:30 1018 30.06 847 25.01 -10.6 12.9 73 -14.5 5.8
18:35 1018 30.06 848 25.04 -10.8 12.6 73 -14.7 5.5
18:40 1019 30.09 848 25.04 -10.9 12.4 73 -14.8 5.3
18:45 1019 30.09 848 25.04 -11 12.3 72 -15 5
18:50 1019 30.09 848 25.04 -11 12.2 73 -15 5
18:55 1019 30.09 848 25.04 -11.1 12.1 73 -15.1 4.9
19:00 1019 30.09 848 25.04 -11.1 12 72 -15.1 4.8
19:05 1019 30.09 848 25.04 -11.2 11.9 72 -15.2 4.6
19:10 1019 30.09 848 25.04 -11.4 11.5 72 -15.6 4
19:15 1019 30.09 848 25.04 -11.6 11.1 72 -15.7 3.8
19:20 1019 30.09 848 25.04 -11.7 11 72 -15.7 3.7
19:25 1019 30.09 848 25.04 -11.7 11 72 -15.8 3.5
19:30 1019 30.09 848 25.04 -11.8 10.7 72 -15.9 3.4
19:35 1019 30.09 848 25.04 -11.9 10.5 72 -16 3.3
19:40 1019 30.09 848 25.04 -11.9 10.6 72 -16 3.2
19:45 1019 30.09 848 25.04 -11.9 10.5 71 -16.1 3
19:50 1018 30.06 848 25.04 -11.9 10.6 71 -16.1 3
19:55 1019 30.09 848 25.04 -11.9 10.5 71 -16.1 3
20:00 1019 30.09 848 25.04 -11.9 10.5 72 -16 3.2
20:05 1018 30.06 847 25.01 -12 10.4 72 -16.2 2.9
20:10 1018 30.06 847 25.01 -12 10.3 72 -16.1 3
20:15 1019 30.09 848 25.04 -12 10.3 72 -16.1 3.1
20:20 1019 30.09 848 25.04 -12 10.4 72 -16 3.2
20:25 1019 30.09 848 25.04 -12.1 10.3 71 -16.3 2.7
20:30 1019 30.09 848 25.04 -12.2 10.1 71 -16.3 2.6
20:35 1019 30.09 848 25.04 -12.2 10 72 -16.3 2.6
20:40 1019 30.09 848 25.04 -12.2 10 72 -16.3 2.7
20:45 1019 30.09 848 25.04 -12.2 10 72 -16.3 2.6
20:50 1019 30.09 848 25.04 -12.3 9.9 72 -16.4 2.4
20:55 1019 30.09 848 25.04 -12.3 9.9 72 -16.4 2.5
21:00 1019 30.09 848 25.04 -12.3 9.8 72 -16.3 2.7
21:05 1019 30.09 848 25.04 -12.4 9.6 72 -16.5 2.4
21:10 1019 30.09 848 25.04 -12.5 9.5 72 -16.6 2
21:15 1019 30.09 848 25.04 -12.5 9.5 71 -16.7 2
21:20 1019 30.09 848 25.04 -12.6 9.4 71 -16.7 1.9
21:25 1019 30.09 848 25.04 -12.7 9.1 72 -16.8 1.7
21:30 1019 30.09 848 25.04 -12.8 8.9 71 -17 1.5
21:35 1019 30.09 848 25.04 -12.8 8.9 71 -17.1 1.3
21:40 1019 30.09 848 25.04 -12.9 8.8 70 -17.4 0.8
21:45 1019 30.09 848 25.04 -12.9 8.7 70 -17.4 0.7
21:50 1019 30.09 848 25.04 -13 8.6 70 -17.3 0.9
21:55 1019 30.09 848 25.04 -13 8.5 70 -17.4 0.8
22:00 1019 30.09 848 25.04 -13.1 8.4 70 -17.5 0.6
22:05 1019 30.09 848 25.04 -13.1 8.4 70 -17.5 0.6
22:10 1019 30.09 848 25.04 -13.2 8.3 71 -17.4 0.6
22:15 1019 30.09 848 25.04 -13.2 8.3 71 -17.3 0.8
22:20 1019 30.09 848 25.04 -13.1 8.3 72 -17.1 1.1
22:25 1019 30.09 848 25.04 -13.3 8.1 73 -17.2 1
22:30 1019 30.09 848 25.04 -13.4 8 73 -17.2 1
22:35 1019 30.09 848 25.04 -13.3 8 73 -17.1 1.2
22:40 1019 30.09 848 25.04 -13.3 8.1 73 -17.2 1
22:45 1019 30.09 848 25.04 -13.2 8.2 73 -17.2 1.1
22:50 1019 30.09 848 25.04 -13.3 8.1 73 -17.2 1.1
22:55 1019 30.09 848 25.04 -13.4 7.9 72 -17.3 0.8
23:00 1019 30.09 848 25.04 -13.4 7.8 72 -17.5 0.6
23:05 1019 30.09 848 25.04 -13.5 7.7 72 -17.5 0.5
23:10 1019 30.09 848 25.04 -13.6 7.5 72 -17.7 0.2
23:15 1019 30.09 848 25.04 -13.7 7.4 72 -17.7 0.1
23:20 1019 30.09 848 25.04 -13.7 7.3 72 -17.7 0.1
23:25 1019 30.09 848 25.04 -13.8 7.1 72 -17.8 -0.1
23:30 1019 30.09 848 25.04 -13.9 7 72 -17.8 -0.1
23:35 1019 30.09 848 25.04 -14 6.9 73 -17.8 -0.1
23:40 1019 30.09 848 25.04 -14 6.8 72 -17.9 -0.3
23:45 1018 30.06 848 25.04 -14.1 6.7 73 -18 -0.3
23:50 1018 30.06 847 25.01 -14.1 6.6 73 -17.9 -0.3
23:55 1018 30.06 847 25.01 -14.1 6.6 73 -17.9 -0.3
24:00 1018 30.06 848 25.04 -14.2 6.5 73 -18 -0.4